| time (UTC) | temp F | wind direction | speed knots | gust knots | rain 1hr in | rain 24hr in | rain mn in | humidity % | barometer mb |
| 20260502194503 | 66 | 131 | 3.5 | 8.7 | 0.00 | 0.01 | 0.01 | 65 | 1014.3 |
| 20260502193603 | 68 | 117 | 3.5 | 11.3 | 0.00 | 0.01 | 0.01 | 60 | 1014.2 |
| 20260502192703 | 68 | 133 | 0.9 | 5.2 | 0.00 | 0.01 | 0.01 | 61 | 1014.3 |
| 20260502191804 | 67 | 0 | 0.0 | 0.0 | 0.00 | 0.01 | 0.01 | 63 | 1013.7 |
| 20260502190903 | 68 | 0 | 0.0 | 0.0 | 0.00 | 0.01 | 0.01 | 62 | 1013.6 |
| 20260502190005 | 68 | 0 | 0.0 | 0.0 | 0.00 | 0.01 | 0.01 | 62 | 1013.4 |
| 20260502185404 | 68 | 0 | 0.0 | 0.0 | 0.00 | 0.01 | 0.01 | 62 | 1013.4 |
| 20260502184717 | 69 | 286 | 0.0 | 0.9 | 0.00 | 0.01 | 0.01 | 61 | 1013.6 |
| 20260502183816 | 71 | 286 | 0.0 | 0.9 | 0.00 | 0.01 | 0.01 | 57 | 1013.4 |
| 20260502182703 | 71 | 286 | 0.0 | 0.9 | 0.00 | 0.01 | 0.01 | 56 | 1013.7 |
| 20260502181804 | 71 | 286 | 0.0 | 0.9 | 0.00 | 0.01 | 0.01 | 55 | 1013.5 |
| 20260502180903 | 72 | 286 | 0.0 | 0.9 | 0.00 | 0.01 | 0.01 | 55 | 1013.6 |
| 20260502163603 | 74 | 261 | 0.9 | 1.7 | 0.00 | 0.01 | 0.01 | 48 | 1014.1 |
| 20260502162703 | 74 | 261 | 0.9 | 1.7 | 0.00 | 0.01 | 0.01 | 49 | 1014.3 |
| 20260502161803 | 74 | 262 | 1.7 | 2.6 | 0.00 | 0.01 | 0.01 | 49 | 1014.5 |
| 20260502160903 | 76 | 254 | 0.9 | 1.7 | 0.00 | 0.01 | 0.01 | 48 | 1014.4 |
| 20260502151804 | 76 | 291 | 0.9 | 3.5 | 0.00 | 0.01 | 0.01 | 45 | 1015.2 |
| 20260502150903 | 77 | 261 | 1.7 | 3.5 | 0.00 | 0.01 | 0.01 | 46 | 1015.4 |
| 20260502123603 | 76 | 262 | 1.7 | 5.2 | 0.00 | 0.01 | 0.01 | 46 | 1016.8 |
| 20260502122703 | 74 | 283 | 1.7 | 5.2 | 0.00 | 0.01 | 0.01 | 47 | 1016.9 |
| 20260502121803 | 75 | 276 | 1.7 | 5.2 | 0.00 | 0.01 | 0.01 | 47 | 1017.0 |
| 20260502120904 | 75 | 264 | 1.7 | 5.2 | 0.00 | 0.01 | 0.01 | 47 | 1017.1 |
| 20260502115403 | 75 | 203 | 1.7 | 5.2 | 0.00 | 0.01 | 0.01 | 46 | 1017.2 |
| 20260502113603 | 75 | 221 | 1.7 | 5.2 | 0.00 | 0.01 | 0.01 | 46 | 1017.2 |
| 20260502112703 | 74 | 166 | 0.9 | 3.5 | 0.00 | 0.01 | 0.01 | 47 | 1017.4 |
| 20260502111803 | 75 | 204 | 1.7 | 7.0 | 0.00 | 0.01 | 0.01 | 45 | 1017.3 |
| 20260502110904 | 75 | 202 | 2.6 | 7.0 | 0.00 | 0.01 | 0.01 | 46 | 1017.5 |
| 20260502110004 | 74 | 251 | 1.7 | 5.2 | 0.00 | 0.01 | 0.01 | 47 | 1017.6 |
| 20260502105404 | 76 | 250 | 1.7 | 3.5 | 0.00 | 0.01 | 0.01 | 44 | 1017.5 |
| 20260502104504 | 74 | 251 | 1.7 | 5.2 | 0.00 | 0.01 | 0.01 | 46 | 1017.6 |
| 20260502103603 | 73 | 213 | 1.7 | 5.2 | 0.00 | 0.01 | 0.01 | 47 | 1017.9 |
| 20260502102704 | 74 | 143 | 1.7 | 5.2 | 0.00 | 0.01 | 0.01 | 45 | 1017.8 |
| 20260502100904 | 72 | 165 | 1.7 | 6.1 | 0.00 | 0.01 | 0.01 | 45 | 1017.8 |
| 20260502100221 | 73 | 146 | 1.7 | 6.1 | 0.00 | 0.01 | 0.01 | 45 | 1018.0 |
| 20260502091119 | 69 | 143 | 0.9 | 2.6 | 0.00 | 0.01 | 0.01 | 49 | 1018.3 |
| 20260502090222 | 68 | 151 | 1.7 | 2.6 | 0.00 | 0.01 | 0.01 | 51 | 1018.3 |
| 20260502071120 | 58 | 152 | 0.0 | 1.7 | 0.00 | 0.00 | 0.00 | 62 | 1018.8 |
| 20260502070218 | 58 | 131 | 0.0 | 1.7 | 0.00 | 0.00 | 0.00 | 61 | 1018.6 |
| 20260502065403 | 58 | 122 | 0.0 | 2.6 | 0.00 | 0.00 | 0.00 | 56 | 1018.6 |
| 20260502064503 | 58 | 124 | 0.9 | 2.6 | 0.00 | 0.00 | 0.00 | 52 | 1018.5 |
| 20260502063603 | 58 | 121 | 0.9 | 3.5 | 0.00 | 0.00 | 0.00 | 51 | 1018.6 |
| 20260502062704 | 58 | 122 | 1.7 | 3.5 | 0.00 | 0.00 | 0.00 | 50 | 1018.3 |
| 20260502061121 | 59 | 137 | 1.7 | 5.2 | 0.00 | 0.00 | 0.00 | 48 | 1018.5 |
| 20260502060218 | 57 | 143 | 1.7 | 6.1 | 0.00 | 0.00 | 0.00 | 50 | 1018.5 |
| 20260502055403 | 56 | 137 | 1.7 | 5.2 | 0.00 | 0.00 | 0.00 | 52 | 1018.6 |
| 20260502054503 | 55 | 135 | 1.7 | 3.5 | 0.00 | 0.00 | 0.00 | 53 | 1018.6 |
| 20260502053603 | 54 | 131 | 1.7 | 5.2 | 0.00 | 0.00 | 0.00 | 54 | 1018.3 |
| 20260502052703 | 54 | 135 | 0.9 | 3.5 | 0.00 | 0.00 | 0.00 | 55 | 1018.2 |
| 20260502051804 | 53 | 133 | 1.7 | 3.5 | 0.00 | 0.00 | 0.00 | 56 | 1018.2 |
| 20260502051117 | 53 | 133 | 0.9 | 2.6 | 0.00 | 0.00 | 0.00 | 57 | 1018.3 |
| 20260502050004 | 53 | 131 | 0.9 | 2.6 | 0.00 | 0.00 | 0.00 | 57 | 1018.3 |
| 20260502045403 | 52 | 129 | 0.9 | 2.6 | 0.00 | 0.00 | 0.00 | 57 | 1018.2 |
| 20260502044504 | 52 | 124 | 0.9 | 3.5 | 0.00 | 0.00 | 0.00 | 57 | 1018.4 |
| 20260502043603 | 52 | 118 | 0.9 | 1.7 | 0.00 | 0.00 | 0.00 | 57 | 1018.3 |
| 20260502042918 | 52 | 126 | 0.9 | 2.6 | 0.00 | 0.00 | 0.00 | 57 | 1018.1 |
| 20260502042020 | 52 | 137 | 0.9 | 2.6 | 0.00 | 0.00 | 0.00 | 57 | 1018.3 |
| 20260502040903 | 52 | 130 | 0.9 | 2.6 | 0.00 | 0.00 | 0.00 | 58 | 1018.3 |
| 20260502040003 | 52 | 131 | 0.9 | 2.6 | 0.00 | 0.00 | 0.00 | 58 | 1018.5 |
| 20260502035403 | 52 | 132 | 0.9 | 2.6 | 0.00 | 0.00 | 0.00 | 58 | 1018.6 |
| 20260502034503 | 52 | 124 | 0.9 | 1.7 | 0.00 | 0.00 | 0.00 | 57 | 1018.9 |
| 20260502033821 | 52 | 120 | 0.0 | 1.7 | 0.00 | 0.00 | 0.00 | 57 | 1018.7 |
| 20260502032918 | 52 | 118 | 0.0 | 0.9 | 0.00 | 0.00 | 0.00 | 57 | 1018.6 |
| 20260502031804 | 53 | 120 | 0.9 | 1.7 | 0.00 | 0.00 | 0.00 | 56 | 1018.7 |
| 20260502030903 | 53 | 121 | 0.0 | 1.7 | 0.00 | 0.00 | 0.00 | 56 | 1018.8 |
| 20260502030004 | 53 | 126 | 0.9 | 1.7 | 0.00 | 0.00 | 0.00 | 55 | 1018.8 |
| 20260502025403 | 53 | 129 | 0.9 | 1.7 | 0.00 | 0.00 | 0.00 | 55 | 1018.8 |
| 20260502024504 | 53 | 116 | 0.9 | 1.7 | 0.00 | 0.00 | 0.00 | 56 | 1018.9 |
| 20260502023604 | 53 | 123 | 0.9 | 2.6 | 0.00 | 0.00 | 0.00 | 55 | 1019.2 |
| 20260502022919 | 54 | 135 | 0.9 | 2.6 | 0.00 | 0.00 | 0.00 | 54 | 1019.1 |
| 20260502022021 | 54 | 129 | 0.9 | 2.6 | 0.00 | 0.00 | 0.00 | 53 | 1019.1 |
| 20260502021119 | 54 | 136 | 0.9 | 2.6 | 0.00 | 0.00 | 0.00 | 52 | 1019.3 |
| 20260502020003 | 54 | 121 | 0.9 | 1.7 | 0.00 | 0.00 | 0.00 | 51 | 1019.2 |
| 20260502015403 | 55 | 121 | 0.9 | 1.7 | 0.00 | 0.00 | 0.00 | 51 | 1019.4 |
| 20260502014504 | 55 | 122 | 0.9 | 1.7 | 0.00 | 0.00 | 0.00 | 51 | 1019.2 |
| 20260502013817 | 55 | 122 | 0.9 | 1.7 | 0.00 | 0.00 | 0.00 | 51 | 1019.3 |
| 20260502012703 | 55 | 123 | 0.9 | 2.6 | 0.00 | 0.00 | 0.00 | 50 | 1019.3 |
| 20260502012022 | 55 | 124 | 0.0 | 1.7 | 0.00 | 0.00 | 0.00 | 50 | 1019.3 |
| 20260502010903 | 56 | 124 | 0.0 | 1.7 | 0.00 | 0.00 | 0.00 | 50 | 1019.5 |
| 20260502010004 | 56 | 123 | 0.0 | 1.7 | 0.00 | 0.00 | 0.00 | 50 | 1019.5 |
| 20260502005403 | 56 | 121 | 0.0 | 1.7 | 0.00 | 0.00 | 0.00 | 49 | 1019.4 |
| 20260502004503 | 56 | 121 | 0.0 | 1.7 | 0.00 | 0.00 | 0.00 | 49 | 1019.8 |
| 20260502003604 | 56 | 119 | 0.9 | 2.6 | 0.00 | 0.00 | 0.00 | 48 | 1019.9 |
| 20260502002920 | 56 | 118 | 0.0 | 1.7 | 0.00 | 0.00 | 0.00 | 49 | 1020.0 |
| 20260502001803 | 56 | 117 | 0.0 | 0.9 | 0.00 | 0.00 | 0.00 | 48 | 1020.0 |
| 20260502000903 | 57 | 118 | 0.0 | 0.9 | 0.00 | 0.00 | 0.00 | 47 | 1020.2 |
| 20260502000003 | 57 | 118 | 0.0 | 0.9 | 0.00 | 0.00 | 0.00 | 47 | 1020.1 |
| 20260501235403 | 57 | 117 | 0.9 | 1.7 | 0.00 | 0.00 | 0.00 | 46 | 1020.2 |
| 20260501234503 | 58 | 117 | 0.9 | 2.6 | 0.00 | 0.00 | 0.00 | 46 | 1020.2 |
| 20260501233819 | 58 | 117 | 0.0 | 2.6 | 0.00 | 0.00 | 0.00 | 46 | 1020.3 |
| 20260501232703 | 58 | 117 | 0.9 | 1.7 | 0.00 | 0.00 | 0.00 | 45 | 1020.3 |
| 20260501231804 | 58 | 122 | 0.9 | 2.6 | 0.00 | 0.00 | 0.00 | 45 | 1020.3 |
| 20260501230903 | 59 | 131 | 0.9 | 2.6 | 0.00 | 0.00 | 0.00 | 44 | 1020.6 |
| 20260501230218 | 59 | 119 | 0.9 | 2.6 | 0.00 | 0.00 | 0.00 | 43 | 1020.5 |
| 20260501225619 | 60 | 128 | 0.9 | 2.6 | 0.00 | 0.00 | 0.00 | 43 | 1020.4 |
| 20260501224503 | 60 | 129 | 0.9 | 3.5 | 0.00 | 0.00 | 0.00 | 42 | 1020.4 |
| 20260501223603 | 60 | 119 | 0.9 | 2.6 | 0.00 | 0.00 | 0.00 | 41 | 1020.5 |
| 20260501222703 | 61 | 120 | 0.9 | 2.6 | 0.00 | 0.00 | 0.00 | 41 | 1020.3 |
| 20260501221803 | 61 | 121 | 0.9 | 2.6 | 0.00 | 0.00 | 0.00 | 40 | 1020.5 |
| 20260501220903 | 62 | 131 | 1.7 | 5.2 | 0.00 | 0.00 | 0.00 | 39 | 1020.4 |
| 20260501220004 | 62 | 121 | 1.7 | 5.2 | 0.00 | 0.00 | 0.00 | 39 | 1020.6 |
| 20260501215403 | 62 | 110 | 0.9 | 3.5 | 0.00 | 0.00 | 0.00 | 38 | 1020.7 |
| 20260501214503 | 62 | 123 | 0.9 | 3.5 | 0.00 | 0.00 | 0.00 | 38 | 1020.6 |